SL-12 R/B(2), 18578

Orbit data source: Space-Track

SL-12 R/B(2), 18578 is space debris in GEO originally from a launch on Thu, 26 Nov 1987 UTC launched from the Tyuratam Missile And Space Complex (TTMTR). Debris objects in space refer to the collection of defunct objects orbiting the Earth. Examples of debris include non-operational satellites, rocket bodies, and fragments generated from explosions, collisions, or faulty payload assembly.

Not visible in the next 10 days
Identifier
18578, 1987-096D
Orbit
GEO
Country
Flag of CISCIS
Related business
Manufacturer
NPO Energiya
Mission
Spacecraft
Bus & Motor
BLOK DM, Unknown motor
Mass
2,440 kg wet, 2,440 kg dry
Launch date (UTC)
1987-11-26 (38 years ago)
Launch vehicle
Unknown
Launch site
Tyuratam Missile And Space Complex (TTMTR)
Object type
Payload
Rocket body
Debris
Shape & HBR
Cyl, 3.1 m
Radar Cross Section
23.597 m², Large (>1 m²)

Expand to show TLE details & history
Last TLE update: 18 hours ago

TLE from 18 hours ago
0 SL-12 R/B(2)
1 18578U 87096D   25286.51329154 -.00000327  00000-0  00000-0 0  9995
2 18578  11.1641 327.7662 0024150 240.8389 128.6484  1.00562931135553
Epoch: 2025-10-13T12:19Z
TLE epoch observation values (Epoch: 2025-10-13T12:19:08.389Z)
Latitude
1.87845°
Longitude
130.18661°
Altitude
35,768.451 km
Speed
3.073 km/s
True Right ascension
22h 29m 08s
True Declination
1° 52' 36"
Sunlit
Object was in daylight at epoch
Visualization orbit readout
Latitude
Unknown
Longitude
Unknown
Altitude
Unknown
Speed
Unknown
Apparent Right ascension
Unknown
Apparent Declination
Unknown
Sunlit
N/A
Visualization observer readout
Local Sidereal Time
00:46:28
Azimuth
Unknown
Elevation
Unknown
Doppler factor
Unknown
Orbital elements
Apogee altitude
35,807.82 km
Perigee altitude
35,604.553 km
Semi-major axis
42,084.324 km
Eccentricity
0.00242
Inclination
11.1641°
RAAN
327.7662°
Arg. of periapsis
240.8389°
True anomaly
128.86412°
Mean anomaly
128.6484°
Eccentric anomaly
128.7563°
Mean motion
0.2514 °/min
Orbital period
1,431.99 mins
BSTAR
0
Loading maneuver chart data...
Computing Atmospheric mass density...
Loading historical data...
Loading historical data...
Loading historical data...
Loading historical data...
Loading historical data...
Loading historical data...
Loading historical data...

Documentation

Showing up to 5 results
|